Location: Caltech
(34.1382°N, 118.1253°W)
Time: 00:29:00
(UTC-07:00)

ASTRO E2 - Visible Passes

Search period start: 01 June 2016 00:00
Search period end: 11 June 2016 00:00
Orbit: 518 x 525 km, 31.4° (Epoch: 31 May)

Date Brightness Start Highest point End Pass type
(mag) Time Alt. Az. Time Alt. Az. Time Alt. Az.
01 Jun 3.7 04:06:50 27° S 04:07:35 29° SSE 04:11:07 10° E visible
02 Jun 3.6 03:51:35 33° SSE 03:51:38 33° SSE 03:55:17 10° E visible
03 Jun 3.6 03:36:19 34° SE 03:36:19 34° SE 03:39:25 10° E visible
03 Jun 2.9 05:12:09 10° WSW 05:16:07 58° S 05:20:03 10° E visible
04 Jun 4.0 03:21:05 30° ESE 03:21:05 30° ESE 03:23:33 10° E visible
04 Jun 2.8 04:56:13 10° W 05:00:11 58° S 05:04:08 10° ESE visible
05 Jun 4.5 03:05:53 23° ESE 03:05:53 23° ESE 03:07:39 10° E visible
05 Jun 2.8 04:40:53 14° W 04:44:15 58° S 04:48:12 10° ESE visible
06 Jun 5.0 02:50:45 17° E 02:50:45 17° E 02:51:45 10° E visible
06 Jun 2.8 04:25:45 20° WSW 04:28:20 56° S 04:32:17 10° ESE visible
07 Jun 5.5 02:35:43 11° E 02:35:43 11° E 02:35:51 10° E visible
07 Jun 2.8 04:10:44 30° WSW 04:12:23 54° S 04:16:19 10° ESE visible
08 Jun 2.8 03:55:50 46° SW 03:56:27 51° S 04:00:21 10° ESE visible
09 Jun 3.2 03:41:09 43° SSE 03:41:09 43° SSE 03:44:23 10° ESE visible
10 Jun 4.4 03:26:44 22° SE 03:26:44 22° SE 03:28:23 10° ESE visible
10 Jun 4.3 05:02:02 10° WSW 05:04:45 17° SSW 05:07:27 10° SSE visible
